Orbital elements:
2015 LG2 PHA, Earth MOID = 0.0166 AU
Epoch 2016 Jan. 13.0 TT = JDT 2457400.5 MPC
M 108.43495 (2000.0) P Q
n 0.69735466 Peri. 188.86724 +0.78050390 +0.56626805
a 1.2594093 Node 133.14820 -0.54900243 +0.82352300
e 0.1816834 Incl. 21.28675 -0.29901505 -0.03391702
P 1.41 H 20.3 G 0.15 U 1
The 200 - 450 metre wide asteroid 2015 LG2 will make a close pass (29.3 LD, 0.0753 AU) travelling at 11.86 km/second, to the Earth-Moon system on the 2nd August 2015 @ 03:41 UT ±00:01.
Orbital elements:
2015 LG2 PHA, Earth MOID = 0.0177 AU
Epoch 2015 June 27.0 TT = JDT 2457200.5 MPC
M 327.82791 (2000.0) P Q
n 0.71485776 Peri. 189.12472 +0.78418957 +0.56552788
a 1.2387670 Node 133.20277 -0.54492908 +0.82449676
e 0.1686089 Incl. 20.50949 -0.29681480 -0.01957853
P 1.38 H 20.6 G 0.15 U 8